CW1839 Weather Reports


time (UTC)temp
F
wind
direction
speed
knots
gust
knots
rain 1hr
in
rain 24hr
in
rain mn
in
humidity
%
barometer
mb
20210518190003 64 0 0.9 0.0 0.00 0.00 0.00 67 1010.7
20210518181506 67 21 0.9 0.0 0.00 0.00 0.00 62 1010.3
20210518164505 72 44 2.6 0.0 0.00 0.00 0.00 49 1010.2
20210518153119 74 64 2.6 0.0 0.00 0.00 0.00 44 1010.3
20210518151501 74 59 3.5 0.0 0.00 0.00 0.00 44 1010.3
20210518141501 75 42 4.3 0.0 0.00 0.00 0.00 43 1010.3
20210518134501 75 62 4.3 0.0 0.00 0.00 0.00 43 1010.3
20210518131504 75 75 5.2 0.0 0.00 0.00 0.00 45 1010.5
20210518124506 75 69 5.2 0.0 0.00 0.00 0.00 46 1010.6
20210518120027 75 83 5.2 0.0 0.00 0.00 0.00 48 1010.6
20210518114508 75 86 5.2 0.0 0.00 0.00 0.00 47 1010.7
20210518111511 75 75 7.0 0.0 0.00 0.00 0.00 48 1010.6
20210518104505 75 61 5.2 0.0 0.00 0.00 0.00 48 1010.7
20210518103040 75 80 4.3 0.0 0.00 0.00 0.00 52 1010.6
20210518101505 75 88 3.5 0.0 0.00 0.00 0.00 52 1010.6
20210518091531 73 96 0.9 0.0 0.00 0.00 0.00 52 1010.5
20210518084555 71 103 0.9 0.0 0.00 0.00 0.00 53 1010.3
20210518083017 71 109 1.7 0.0 0.00 0.00 0.00 54 1010.1
20210518081505 71 131 0.9 0.0 0.00 0.00 0.00 54 1010.1
20210518080050 71 154 0.9 0.0 0.00 0.00 0.00 57 1010.1
20210518071513 69 147 0.9 0.0 0.00 0.00 0.00 58 1010.0
20210518070003 69 154 0.9 0.0 0.00 0.00 0.00 56 1010.1
20210518063003 68 124 0.0 0.0 0.00 0.00 0.00 57 1010.0
20210518060004 66 332 0.0 0.0 0.00 0.00 0.00 60 1009.6
20210518053012 64 0 0.0 0.0 0.00 0.00 0.00 62 1009.6
20210518051506 63 0 0.0 0.0 0.00 0.00 0.00 67 1009.5
20210518044512 62 342 0.0 0.0 0.00 0.00 0.00 71 1009.2
20210518041503 62 0 0.0 0.0 0.00 0.00 0.00 74 1008.6
20210518040017 62 356 0.9 0.0 0.00 0.00 0.00 74 1008.4
20210518033047 63 299 0.0 0.0 0.00 0.00 0.00 72 1008.1
20210518031510 63 296 0.0 0.0 0.00 0.00 0.00 72 1008.0
20210518030017 63 264 0.0 0.0 0.00 0.00 0.00 71 1007.9
20210518023018 64 227 0.9 0.0 0.00 0.00 0.00 71 1007.6
20210518021506 64 247 0.0 0.0 0.00 0.00 0.00 70 1007.6
20210518020025 64 220 0.9 0.0 0.00 0.00 0.00 70 1007.5
20210518013030 65 229 0.0 0.0 0.00 0.00 0.00 68 1007.7
20210518011515 65 227 0.0 0.0 0.00 0.00 0.00 68 1007.7
20210518010010 65 229 0.0 0.0 0.00 0.00 0.00 68 1007.6
20210518004508 65 229 0.9 0.0 0.00 0.00 0.00 67 1007.6
20210517234508 65 181 0.0 0.0 0.00 0.00 0.00 70 1007.7
20210517233008 66 106 0.0 0.0 0.00 0.00 0.00 69 1007.9
20210517220049 67 106 0.0 0.0 0.00 0.00 0.00 68 1008.2
20210517214549 67 106 0.0 0.0 0.00 0.00 0.00 67 1008.1
20210517213014 67 106 0.0 0.0 0.00 0.00 0.00 66 1008.3
20210517210011 67 89 0.0 0.0 0.00 0.00 0.00 67 1008.4
20210517203035 68 89 0.0 0.0 0.00 0.00 0.00 66 1008.4
20210517200018 69 89 0.0 0.0 0.00 0.00 0.00 64 1008.2